Weather History for Wilmington, OH

Change the Weather History Date:

Sunday, October 20, 2013

  Actual Average (KDAY) Record (KDAY)
Temperature  
Mean Temperature 48 °F 52 °F  
Max Temperature 60 °F 62 °F 84 °F (1953)
Min Temperature 36 °F 43 °F 24 °F (1952)
Degree Days  
Heating Degree Days 17 13  
Month to date heating degree days 198  
Since 1 July heating degree days 288  
Cooling Degree Days 0 0  
Month to date cooling degree days 10  
Year to date cooling degree days 891  
Moisture  
Dew Point 38 °F    
Average Humidity 73    
Maximum Humidity 97    
Minimum Humidity 49    
Precipitation  
Precipitation 0.00 in 0.09 in 1.21 in (1985)
Month to date precipitation 1.92  
Year to date precipitation 33.53  
Snow  
Snow 0.00 in 0.00 in 0.80 in (1989)
Month to date snowfall 0.2  
Since 1 July snowfall 0.2  
Since 1 September snowfall 0.2  
Snow Depth -    
Sea Level Pressure  
Sea Level Pressure 30.05 in    
Wind  
Wind Speed 8 mph (SSW)    
Max Wind Speed 18 mph    
Max Gust Speed 24 mph    
Visibility 10 miles    
Events Snow    
T = Trace of Precipitation, MM = Missing Value Source: NWS Daily Summary

Daily Weather History Graph

Daily Weather History Graph

Search for Another Location

Airport:

Trip Planner

Search our weather history database for the weather conditions in past years. The results will help you decide how hot, cold, wet, or windy it might be!

Date:

Astronomy

Oct. 20, 2013 Rise Set
Actual Time 7:50 AM EDT 6:48 PM EDT
Civil Twilight 7:23 AM EDT 7:16 PM EDT
Nautical Twilight 6:52 AM EDT 7:47 PM EDT
Astronomical Twilight 6:20 AM EDT 8:18 PM EDT
Moon 7:57 PM EDT (10/20) 9:26 AM EDT (10/20)
Length of Visible Light 11h 52m
Length of Day
10h 58m
Full, 97% of the Moon is Illuminated
Oct 20
Full
Oct 26
Last Quarter
Nov 3
New
Nov 10
First Quarter
Nov 17
Full

Hourly Weather History & Observations

Time (EDT) Temp. Windchill Dew Point Humidity Pressure Visibility Wind Dir Wind Speed Gust Speed Precip Events Conditions
12:54 AM 37.9 °F 35.5 °F 36.0 °F 93% 30.04 in 10.0 mi SSW 3.5 mph - N/A   Clear
1:54 AM 36.0 °F 32.1 °F 35.1 °F 97% 30.05 in 10.0 mi SSW 4.6 mph - N/A   Clear
2:54 AM 37.0 °F 34.5 °F 36.0 °F 96% 30.05 in 10.0 mi SSW 3.5 mph - 0.00 in   Clear
3:54 AM 36.0 °F 32.1 °F 34.0 °F 93% 30.04 in 10.0 mi SSW 4.6 mph - N/A   Clear
4:54 AM 36.0 °F 30.3 °F 34.0 °F 93% 30.03 in 9.0 mi SSW 6.9 mph - 0.00 in Snow Light Snow
5:54 AM 36.0 °F 31.1 °F 34.0 °F 93% 30.04 in 9.0 mi SSW 5.8 mph - 0.00 in Snow Light Snow
6:54 AM 36.0 °F 31.1 °F 34.0 °F 93% 30.05 in 8.0 mi South 5.8 mph - 0.00 in Snow Light Snow
7:54 AM 36.0 °F 29.6 °F 34.0 °F 93% 30.07 in 7.0 mi SSW 8.1 mph - 0.00 in Snow Light Snow
8:54 AM 41.0 °F 35.2 °F 37.9 °F 89% 30.08 in 10.0 mi SSW 9.2 mph - 0.00 in   Clear
9:54 AM 46.0 °F 39.9 °F 39.0 °F 76% 30.08 in 10.0 mi SW 13.8 mph - N/A   Clear
10:54 AM 51.1 °F - 41.0 °F 68% 30.08 in 10.0 mi SW 13.8 mph - N/A   Clear
11:54 AM 54.0 °F - 39.9 °F 59% 30.08 in 10.0 mi SW 17.3 mph - N/A   Clear
12:54 PM 57.0 °F - 41.0 °F 55% 30.07 in 10.0 mi SW 18.4 mph 24.2 mph N/A   Clear
1:54 PM 57.0 °F - 39.9 °F 53% 30.05 in 10.0 mi SSW 16.1 mph - N/A   Clear
2:54 PM 59.0 °F - 41.0 °F 51% 30.03 in 10.0 mi SW 17.3 mph 21.9 mph N/A   Clear
3:54 PM 60.1 °F - 41.0 °F 49% 30.03 in 10.0 mi SSW 16.1 mph 23.0 mph N/A   Clear
4:54 PM 59.0 °F - 39.9 °F 49% 30.03 in 10.0 mi SSW 13.8 mph - N/A   Clear
5:54 PM 57.9 °F - 39.0 °F 49% 30.04 in 10.0 mi SSW 11.5 mph - N/A   Clear
6:54 PM 53.1 °F - 39.0 °F 59% 30.05 in 10.0 mi South 8.1 mph - N/A   Clear
7:54 PM 50.0 °F - 39.0 °F 66% 30.06 in 10.0 mi South 6.9 mph - N/A   Clear
8:54 PM 48.9 °F - 39.0 °F 69% 30.06 in 10.0 mi South 6.9 mph - N/A   Clear
9:54 PM 46.9 °F - 39.0 °F 74% 30.05 in 10.0 mi South 8.1 mph - N/A   Clear
10:54 PM 48.0 °F - 39.0 °F 71% 30.04 in 10.0 mi South 8.1 mph - N/A   Clear
11:54 PM 46.0 °F 43.1 °F 37.9 °F 73% 30.04 in 10.0 mi South 5.8 mph - N/A   Clear